Time,TemperatureF,DewpointF,PressureIn,WindDirection,WindDirectionDegrees,WindSpeedMPH,WindSpeedGustMPH,Humidity,HourlyPrecipIn,Conditions,Clouds,dailyrainin,SoftwareType,DateUTC
2013-09-14 00:06:00,55.4,51.3,29.90,North,32767,0.0,0.0,86,0.00,,,0.00,Wunderground v.1.15,2013-09-14 04:06:00,
2013-09-14 00:10:00,55.3,51.2,29.90,North,32767,0.0,0.0,86,0.00,,,0.00,Wunderground v.1.15,2013-09-14 04:10:00,
2013-09-14 00:15:00,55.2,51.1,29.89,North,32767,0.0,0.0,86,0.00,,,0.00,Wunderground v.1.15,2013-09-14 04:15:00,
2013-09-14 00:20:00,55.1,51.0,29.90,North,32767,0.0,0.0,86,0.00,,,0.00,Wunderground v.1.15,2013-09-14 04:20:00,
2013-09-14 00:25:00,55.0,51.2,29.90,North,32767,0.0,0.0,87,0.00,,,0.00,Wunderground v.1.15,2013-09-14 04:25:00,
2013-09-14 00:30:00,54.9,51.1,29.90,North,32767,0.0,0.0,87,0.00,,,0.00,Wunderground v.1.15,2013-09-14 04:30:00,
2013-09-14 00:40:00,54.7,50.9,29.90,North,32767,0.0,0.0,87,0.00,,,0.00,Wunderground v.1.15,2013-09-14 04:40:00,
2013-09-14 00:45:00,54.6,50.8,29.90,North,32767,0.0,0.0,87,0.00,,,0.00,Wunderground v.1.15,2013-09-14 04:45:00,
2013-09-14 00:50:00,54.5,50.4,29.89,North,360,0.0,0.0,86,0.00,,,0.00,Wunderground v.1.15,2013-09-14 04:50:00,
2013-09-14 00:55:00,54.5,50.7,29.89,North,32767,0.0,0.0,87,0.00,,,0.00,Wunderground v.1.15,2013-09-14 04:55:00,
2013-09-14 01:00:00,54.4,50.6,29.89,North,32767,0.0,0.0,87,0.00,,,0.00,Wunderground v.1.15,2013-09-14 05:00:00,
2013-09-14 01:06:00,54.3,50.5,29.90,North,32767,0.0,0.0,87,0.00,,,0.00,Wunderground v.1.15,2013-09-14 05:06:00,
2013-09-14 01:15:00,54.2,50.7,29.89,North,32767,0.0,0.0,88,0.00,,,0.00,Wunderground v.1.15,2013-09-14 05:15:00,
2013-09-14 01:20:00,54.1,50.6,29.89,North,32767,0.0,0.0,88,0.00,,,0.00,Wunderground v.1.15,2013-09-14 05:20:00,
2013-09-14 01:30:00,54.0,50.5,29.89,North,32767,0.0,0.0,88,0.00,,,0.00,Wunderground v.1.15,2013-09-14 05:30:00,
2013-09-14 01:35:00,53.9,50.7,29.89,North,360,0.0,0.0,89,0.00,,,0.00,Wunderground v.1.15,2013-09-14 05:35:00,
2013-09-14 01:40:00,53.9,50.7,29.89,North,32767,0.0,0.0,89,0.00,,,0.00,Wunderground v.1.15,2013-09-14 05:40:00,
2013-09-14 01:45:00,53.8,50.6,29.89,North,32767,0.0,0.0,89,0.00,,,0.00,Wunderground v.1.15,2013-09-14 05:45:00,
2013-09-14 01:50:00,53.8,50.6,29.89,North,32767,0.0,0.0,89,0.00,,,0.00,Wunderground v.1.15,2013-09-14 05:50:00,
2013-09-14 01:55:00,53.7,50.5,29.89,North,360,0.0,0.0,89,0.00,,,0.00,Wunderground v.1.15,2013-09-14 05:55:00,
2013-09-14 02:00:00,53.7,50.8,29.89,North,360,0.0,0.0,90,0.00,,,0.00,Wunderground v.1.15,2013-09-14 06:00:00,
2013-09-14 02:06:00,53.6,50.4,29.89,North,360,0.0,0.0,89,0.00,,,0.00,Wunderground v.1.15,2013-09-14 06:06:00,
2013-09-14 02:15:00,53.3,50.4,29.89,North,360,0.0,0.0,90,0.00,,,0.00,Wunderground v.1.15,2013-09-14 06:15:00,
2013-09-14 02:20:00,53.2,50.3,29.89,North,32767,0.0,0.0,90,0.00,,,0.00,Wunderground v.1.15,2013-09-14 06:20:00,
2013-09-14 02:30:00,53.0,50.4,29.90,North,32767,0.0,0.0,91,0.00,,,0.00,Wunderground v.1.15,2013-09-14 06:30:00,
2013-09-14 02:35:00,52.9,50.3,29.90,North,360,0.0,0.0,91,0.00,,,0.00,Wunderground v.1.15,2013-09-14 06:35:00,
2013-09-14 02:40:00,52.8,50.2,29.90,North,32767,0.0,0.0,91,0.00,,,0.00,Wunderground v.1.15,2013-09-14 06:40:00,
2013-09-14 02:50:00,52.4,50.1,29.90,North,360,0.0,0.0,92,0.00,,,0.00,Wunderground v.1.15,2013-09-14 06:50:00,
2013-09-14 02:55:00,52.3,50.0,29.90,North,360,0.0,0.0,92,0.00,,,0.00,Wunderground v.1.15,2013-09-14 06:55:00,
2013-09-14 03:10:00,51.9,49.9,29.90,North,32767,0.0,0.0,93,0.00,,,0.00,Wunderground v.1.15,2013-09-14 07:10:00,
2013-09-14 03:20:00,51.7,49.7,29.90,North,360,0.0,0.0,93,0.00,,,0.00,Wunderground v.1.15,2013-09-14 07:20:00,
2013-09-14 03:25:00,51.7,49.7,29.90,North,32767,0.0,0.0,93,0.00,,,0.00,Wunderground v.1.15,2013-09-14 07:25:00,
2013-09-14 03:35:00,51.7,50.0,29.90,North,360,0.0,0.0,94,0.00,,,0.00,Wunderground v.1.15,2013-09-14 07:35:00,
2013-09-14 03:40:00,51.6,49.9,29.90,North,360,0.0,0.0,94,0.00,,,0.00,Wunderground v.1.15,2013-09-14 07:40:00,
2013-09-14 03:50:00,51.5,49.8,29.91,North,32767,0.0,0.0,94,0.00,,,0.00,Wunderground v.1.15,2013-09-14 07:50:00,
2013-09-14 04:00:00,51.4,50.0,29.90,North,360,0.0,0.0,95,0.00,,,0.00,Wunderground v.1.15,2013-09-14 08:00:00,
2013-09-14 04:06:00,51.2,49.8,29.90,North,32767,0.0,0.0,95,0.00,,,0.00,Wunderground v.1.15,2013-09-14 08:06:00,
2013-09-14 04:15:00,51.1,49.7,29.90,North,360,0.0,0.0,95,0.00,,,0.00,Wunderground v.1.15,2013-09-14 08:15:00,
2013-09-14 04:20:00,51.0,49.6,29.90,North,32767,0.0,0.0,95,0.00,,,0.00,Wunderground v.1.15,2013-09-14 08:20:00,
2013-09-14 04:25:00,50.9,49.5,29.90,North,32767,0.0,0.0,95,0.00,,,0.00,Wunderground v.1.15,2013-09-14 08:25:00,
2013-09-14 04:30:00,50.8,49.4,29.90,North,360,0.0,0.0,95,0.00,,,0.00,Wunderground v.1.15,2013-09-14 08:30:00,
2013-09-14 04:35:00,50.7,49.3,29.90,North,32767,0.0,0.0,95,0.00,,,0.00,Wunderground v.1.15,2013-09-14 08:35:00,
2013-09-14 04:40:00,50.7,49.3,29.90,North,32767,0.0,0.0,95,0.00,,,0.00,Wunderground v.1.15,2013-09-14 08:40:00,
2013-09-14 04:45:00,50.6,49.2,29.90,North,32767,0.0,0.0,95,0.00,,,0.00,Wunderground v.1.15,2013-09-14 08:45:00,
2013-09-14 04:50:00,50.6,49.2,29.90,North,360,0.0,0.0,95,0.00,,,0.00,Wunderground v.1.15,2013-09-14 08:50:00,
2013-09-14 04:55:00,50.5,49.4,29.90,North,32767,0.0,0.0,96,0.00,,,0.00,Wunderground v.1.15,2013-09-14 08:55:00,
2013-09-14 05:00:00,50.5,49.4,29.90,North,32767,0.0,0.0,96,0.00,,,0.00,Wunderground v.1.15,2013-09-14 09:00:00,
2013-09-14 05:06:00,50.4,49.3,29.91,North,32767,0.0,0.0,96,0.00,,,0.00,Wunderground v.1.15,2013-09-14 09:06:00,
2013-09-14 05:15:00,50.3,49.2,29.91,North,32767,0.0,0.0,96,0.00,,,0.00,Wunderground v.1.15,2013-09-14 09:15:00,
2013-09-14 05:25:00,50.3,49.2,29.91,North,32767,0.0,0.0,96,0.00,,,0.00,Wunderground v.1.15,2013-09-14 09:25:00,
2013-09-14 05:30:00,50.2,49.1,29.92,North,32767,0.0,0.0,96,0.00,,,0.00,Wunderground v.1.15,2013-09-14 09:30:00,
2013-09-14 05:40:00,50.1,49.0,29.92,North,360,0.0,0.0,96,0.00,,,0.00,Wunderground v.1.15,2013-09-14 09:40:00,
2013-09-14 05:45:00,50.0,48.9,29.92,North,32767,0.0,0.0,96,0.00,,,0.00,Wunderground v.1.15,2013-09-14 09:45:00,
2013-09-14 05:50:00,50.1,49.0,29.92,North,32767,0.0,0.0,96,0.00,,,0.00,Wunderground v.1.15,2013-09-14 09:50:00,
2013-09-14 05:55:00,50.0,48.9,29.93,North,32767,0.0,0.0,96,0.00,,,0.00,Wunderground v.1.15,2013-09-14 09:55:00,
2013-09-14 06:05:00,49.9,48.8,29.93,North,32767,0.0,0.0,96,0.00,,,0.00,Wunderground v.1.15,2013-09-14 10:05:00,
2013-09-14 06:15:00,49.8,48.7,29.93,North,32767,0.0,0.0,96,0.00,,,0.00,Wunderground v.1.15,2013-09-14 10:15:00,
2013-09-14 06:20:00,49.7,48.6,29.93,North,32767,0.0,0.0,96,0.00,,,0.00,Wunderground v.1.15,2013-09-14 10:20:00,
2013-09-14 06:25:00,49.7,48.6,29.94,North,32767,0.0,0.0,96,0.00,,,0.00,Wunderground v.1.15,2013-09-14 10:25:00,
2013-09-14 06:30:00,49.6,48.8,29.94,North,32767,0.0,0.0,97,0.00,,,0.00,Wunderground v.1.15,2013-09-14 10:30:00,
2013-09-14 06:35:00,49.6,48.8,29.94,North,360,0.0,0.0,97,0.00,,,0.00,Wunderground v.1.15,2013-09-14 10:35:00,
2013-09-14 06:40:00,49.6,48.8,29.95,North,360,0.0,0.0,97,0.00,,,0.00,Wunderground v.1.15,2013-09-14 10:40:00,
2013-09-14 06:45:00,49.6,48.8,29.95,North,360,0.0,0.0,97,0.00,,,0.00,Wunderground v.1.15,2013-09-14 10:45:00,
2013-09-14 06:50:00,49.6,48.8,29.95,North,32767,0.0,0.0,97,0.00,,,0.00,Wunderground v.1.15,2013-09-14 10:50:00,
2013-09-14 07:00:00,49.7,48.9,29.95,North,32767,0.0,0.0,97,0.00,,,0.00,Wunderground v.1.15,2013-09-14 11:00:00,
2013-09-14 07:06:00,49.6,48.8,29.95,North,360,0.0,0.0,97,0.00,,,0.00,Wunderground v.1.15,2013-09-14 11:06:00,
2013-09-14 07:15:00,49.6,48.8,29.96,North,32767,0.0,0.0,97,0.00,,,0.00,Wunderground v.1.15,2013-09-14 11:15:00,
2013-09-14 07:25:00,49.6,48.8,29.97,North,32767,0.0,0.0,97,0.00,,,0.00,Wunderground v.1.15,2013-09-14 11:25:00,
2013-09-14 07:30:00,49.6,48.8,29.97,North,32767,0.0,0.0,97,0.00,,,0.00,Wunderground v.1.15,2013-09-14 11:30:00,
2013-09-14 07:35:00,49.6,48.8,29.97,North,360,0.0,0.0,97,0.00,,,0.00,Wunderground v.1.15,2013-09-14 11:35:00,
2013-09-14 07:45:00,49.9,49.1,29.98,North,360,0.0,0.0,97,0.00,,,0.00,Wunderground v.1.15,2013-09-14 11:45:00,
2013-09-14 07:50:00,49.9,49.1,29.98,North,360,0.0,0.0,97,0.00,,,0.00,Wunderground v.1.15,2013-09-14 11:50:00,
2013-09-14 07:55:00,50.0,49.2,29.98,North,32767,0.0,0.0,97,0.00,,,0.00,Wunderground v.1.15,2013-09-14 11:55:00,
2013-09-14 08:00:00,50.1,49.3,29.98,North,32767,0.0,0.0,97,0.00,,,0.00,Wunderground v.1.15,2013-09-14 12:00:00,
2013-09-14 08:05:00,50.3,49.8,29.99,North,360,0.0,0.0,98,0.00,,,0.00,Wunderground v.1.15,2013-09-14 12:05:00,
2013-09-14 08:15:00,50.6,50.1,29.99,North,32767,0.0,0.0,98,0.00,,,0.00,Wunderground v.1.15,2013-09-14 12:15:00,
2013-09-14 08:20:00,50.8,50.3,29.99,North,360,0.0,0.0,98,0.00,,,0.00,Wunderground v.1.15,2013-09-14 12:20:00,
2013-09-14 08:25:00,50.9,50.4,29.99,North,32767,0.0,0.0,98,0.00,,,0.00,Wunderground v.1.15,2013-09-14 12:25:00,
2013-09-14 08:30:00,51.0,50.5,29.99,North,32767,0.0,0.0,98,0.00,,,0.00,Wunderground v.1.15,2013-09-14 12:30:00,
2013-09-14 08:40:00,51.1,50.6,29.99,North,32767,0.0,0.0,98,0.00,,,0.00,Wunderground v.1.15,2013-09-14 12:40:00,
2013-09-14 08:50:00,51.4,50.9,30.00,North,32767,0.0,0.0,98,0.00,,,0.00,Wunderground v.1.15,2013-09-14 12:50:00,
2013-09-14 09:00:00,51.6,51.1,30.00,North,32767,0.0,0.0,98,0.00,,,0.00,Wunderground v.1.15,2013-09-14 13:00:00,
2013-09-14 09:06:00,51.6,51.1,30.01,North,360,0.0,0.0,98,0.00,,,0.00,Wunderground v.1.15,2013-09-14 13:06:00,
2013-09-14 09:15:00,51.5,50.7,30.01,North,360,0.0,0.0,97,0.00,,,0.00,Wunderground v.1.15,2013-09-14 13:15:00,
2013-09-14 09:25:00,51.5,50.7,30.01,North,360,0.0,0.0,97,0.00,,,0.00,Wunderground v.1.15,2013-09-14 13:25:00,
2013-09-14 09:30:00,51.5,50.7,30.01,North,32767,0.0,0.0,97,0.00,,,0.00,Wunderground v.1.15,2013-09-14 13:30:00,
2013-09-14 09:35:00,51.5,50.4,30.02,North,32767,0.0,0.0,96,0.00,,,0.00,Wunderground v.1.15,2013-09-14 13:35:00,
2013-09-14 09:40:00,51.6,50.5,30.01,North,32767,0.0,0.0,96,0.00,,,0.00,Wunderground v.1.15,2013-09-14 13:40:00,
2013-09-14 09:50:00,51.8,50.7,30.02,North,32767,0.0,0.0,96,0.00,,,0.00,Wunderground v.1.15,2013-09-14 13:50:00,
2013-09-14 10:00:00,52.1,51.0,30.02,North,360,0.0,0.0,96,0.00,,,0.00,Wunderground v.1.15,2013-09-14 14:00:00,
2013-09-14 10:06:00,52.3,51.2,30.03,North,32767,0.0,0.0,96,0.00,,,0.00,Wunderground v.1.15,2013-09-14 14:06:00,
2013-09-14 10:15:00,52.8,51.7,30.03,North,32767,0.0,0.0,96,0.00,,,0.00,Wunderground v.1.15,2013-09-14 14:15:00,
2013-09-14 10:20:00,53.0,51.9,30.03,North,360,0.0,0.0,96,0.00,,,0.00,Wunderground v.1.15,2013-09-14 14:20:00,
2013-09-14 10:30:00,53.5,52.4,30.03,North,32767,0.0,0.0,96,0.00,,,0.00,Wunderground v.1.15,2013-09-14 14:30:00,
2013-09-14 10:40:00,54.0,52.6,30.03,North,360,0.0,0.0,95,0.00,,,0.00,Wunderground v.1.15,2013-09-14 14:40:00,
2013-09-14 10:50:00,54.6,52.9,30.03,North,360,0.0,0.0,94,0.00,,,0.00,Wunderground v.1.15,2013-09-14 14:50:00,
2013-09-14 10:55:00,54.8,52.5,30.03,North,32767,0.0,0.0,92,0.00,,,0.00,Wunderground v.1.15,2013-09-14 14:55:00,
2013-09-14 11:00:00,55.0,52.4,30.03,North,360,0.0,0.0,91,0.00,,,0.00,Wunderground v.1.15,2013-09-14 15:00:00,
2013-09-14 11:06:00,55.6,52.7,30.03,North,32767,0.0,0.0,90,0.00,,,0.00,Wunderground v.1.15,2013-09-14 15:06:00,
2013-09-14 11:15:00,56.6,52.8,30.03,North,360,0.0,0.0,87,0.00,,,0.00,Wunderground v.1.15,2013-09-14 15:15:00,
2013-09-14 11:20:00,57.1,52.6,30.03,North,32767,0.0,0.0,85,0.00,,,0.00,Wunderground v.1.15,2013-09-14 15:20:00,
2013-09-14 11:25:00,57.6,53.1,30.03,North,360,0.0,0.0,85,0.00,,,0.00,Wunderground v.1.15,2013-09-14 15:25:00,
2013-09-14 11:35:00,58.6,53.8,30.03,North,360,0.0,0.0,84,0.00,,,0.00,Wunderground v.1.15,2013-09-14 15:35:00,
2013-09-14 11:40:00,59.0,54.2,30.03,North,360,0.0,0.0,84,0.00,,,0.00,Wunderground v.1.15,2013-09-14 15:40:00,
2013-09-14 11:50:00,60.2,54.7,30.03,North,32767,0.0,0.0,82,0.00,,,0.00,Wunderground v.1.15,2013-09-14 15:50:00,
2013-09-14 12:00:00,62.4,55.8,30.03,North,32767,0.0,0.0,79,0.00,,,0.00,Wunderground v.1.15,2013-09-14 16:00:00,
2013-09-14 12:06:00,63.0,55.7,30.03,North,360,0.0,0.0,77,0.00,,,0.00,Wunderground v.1.15,2013-09-14 16:06:00,
2013-09-14 12:15:00,63.2,55.1,30.03,North,32767,0.0,0.0,75,0.00,,,0.00,Wunderground v.1.15,2013-09-14 16:15:00,
2013-09-14 12:20:00,63.2,54.4,30.03,North,360,0.0,0.0,73,0.00,,,0.00,Wunderground v.1.15,2013-09-14 16:20:00,
2013-09-14 12:30:00,64.3,55.5,30.03,North,32767,0.0,0.0,73,0.00,,,0.00,Wunderground v.1.15,2013-09-14 16:30:00,
2013-09-14 12:35:00,64.6,55.0,30.03,North,360,0.0,0.0,71,0.00,,,0.00,Wunderground v.1.15,2013-09-14 16:35:00,
2013-09-14 12:45:00,64.8,55.9,30.03,North,32767,0.0,0.0,73,0.00,,,0.00,Wunderground v.1.15,2013-09-14 16:45:00,
2013-09-14 12:50:00,64.9,54.9,30.03,North,32767,0.0,0.0,70,0.00,,,0.00,Wunderground v.1.15,2013-09-14 16:50:00,
2013-09-14 12:55:00,64.7,53.9,30.03,North,32767,0.0,0.0,68,0.00,,,0.00,Wunderground v.1.15,2013-09-14 16:55:00,
2013-09-14 13:05:00,64.6,54.2,30.03,North,32767,0.0,0.0,69,0.00,,,0.00,Wunderground v.1.15,2013-09-14 17:05:00,
2013-09-14 13:15:00,64.8,54.4,30.02,North,32767,0.0,0.0,69,0.00,,,0.00,Wunderground v.1.15,2013-09-14 17:15:00,
2013-09-14 13:20:00,65.2,55.6,30.02,North,32767,0.0,0.0,71,0.00,,,0.00,Wunderground v.1.15,2013-09-14 17:20:00,
2013-09-14 13:25:00,65.2,55.2,30.02,North,32767,0.0,0.0,70,0.00,,,0.00,Wunderground v.1.15,2013-09-14 17:25:00,
2013-09-14 13:30:00,65.2,54.0,30.02,North,32767,0.0,0.0,67,0.00,,,0.00,Wunderground v.1.15,2013-09-14 17:30:00,
2013-09-14 13:35:00,65.1,53.5,30.02,North,360,0.0,0.0,66,0.00,,,0.00,Wunderground v.1.15,2013-09-14 17:35:00,
2013-09-14 13:40:00,65.1,54.7,30.02,North,32767,0.0,0.0,69,0.00,,,0.00,Wunderground v.1.15,2013-09-14 17:40:00,
2013-09-14 13:50:00,66.1,55.6,30.02,North,32767,0.0,0.0,69,0.00,,,0.00,Wunderground v.1.15,2013-09-14 17:50:00,
2013-09-14 14:00:00,66.9,56.0,30.02,North,32767,0.0,0.0,68,0.00,,,0.00,Wunderground v.1.15,2013-09-14 18:00:00,
2013-09-14 14:06:00,67.1,55.8,30.02,North,32767,0.0,0.0,67,0.00,,,0.00,Wunderground v.1.15,2013-09-14 18:06:00,
2013-09-14 14:15:00,69.3,57.9,30.02,North,32767,0.0,0.0,67,0.00,,,0.00,Wunderground v.1.15,2013-09-14 18:15:00,
2013-09-14 14:20:00,69.2,57.4,30.02,North,360,0.0,0.0,66,0.00,,,0.00,Wunderground v.1.15,2013-09-14 18:20:00,
2013-09-14 14:25:00,68.8,56.1,30.01,North,32767,0.0,0.0,64,0.00,,,0.00,Wunderground v.1.15,2013-09-14 18:25:00,
2013-09-14 14:30:00,69.4,58.0,30.01,North,360,0.0,0.0,67,0.00,,,0.00,Wunderground v.1.15,2013-09-14 18:30:00,
2013-09-14 14:35:00,69.6,59.0,30.01,North,32767,0.0,0.0,69,0.00,,,0.00,Wunderground v.1.15,2013-09-14 18:35:00,
2013-09-14 14:45:00,69.5,57.2,30.01,North,32767,0.0,0.0,65,0.00,,,0.00,Wunderground v.1.15,2013-09-14 18:45:00,
2013-09-14 14:50:00,70.2,57.0,30.01,North,32767,0.0,0.0,63,0.00,,,0.00,Wunderground v.1.15,2013-09-14 18:50:00,
2013-09-14 15:01:00,69.8,55.7,30.01,North,32767,0.0,0.0,61,0.00,,,0.00,Wunderground v.1.15,2013-09-14 19:01:00,
2013-09-14 15:10:00,69.9,56.7,30.01,North,32767,0.0,0.0,63,0.00,,,0.00,Wunderground v.1.15,2013-09-14 19:10:00,
2013-09-14 15:20:00,69.9,58.0,30.00,North,32767,0.0,0.0,66,0.00,,,0.00,Wunderground v.1.15,2013-09-14 19:20:00,
2013-09-14 15:30:00,69.6,56.4,30.00,North,360,0.0,0.0,63,0.00,,,0.00,Wunderground v.1.15,2013-09-14 19:30:00,
2013-09-14 15:40:00,69.6,59.0,30.00,North,360,0.0,0.0,69,0.00,,,0.00,Wunderground v.1.15,2013-09-14 19:40:00,
2013-09-14 15:45:00,69.7,59.1,30.00,North,360,0.0,0.0,69,0.00,,,0.00,Wunderground v.1.15,2013-09-14 19:45:00,
2013-09-14 15:55:00,69.8,57.9,30.00,North,32767,0.0,0.0,66,0.00,,,0.00,Wunderground v.1.15,2013-09-14 19:55:00,
2013-09-14 16:06:00,70.0,57.3,30.00,North,360,0.0,0.0,64,0.00,,,0.00,Wunderground v.1.15,2013-09-14 20:06:00,
2013-09-14 16:15:00,69.7,58.3,30.00,North,32767,0.0,0.0,67,0.00,,,0.00,Wunderground v.1.15,2013-09-14 20:15:00,
2013-09-14 16:20:00,69.6,56.9,30.00,North,32767,0.0,0.0,64,0.00,,,0.00,Wunderground v.1.15,2013-09-14 20:20:00,
2013-09-14 16:30:00,69.7,57.8,29.99,North,360,0.0,0.0,66,0.00,,,0.00,Wunderground v.1.15,2013-09-14 20:30:00,
2013-09-14 16:40:00,69.7,55.6,30.00,North,32767,0.0,0.0,61,0.00,,,0.00,Wunderground v.1.15,2013-09-14 20:40:00,
2013-09-14 16:45:00,69.8,57.5,29.99,North,32767,0.0,0.0,65,0.00,,,0.00,Wunderground v.1.15,2013-09-14 20:45:00,
2013-09-14 16:50:00,69.8,59.2,30.00,North,32767,0.0,0.0,69,0.00,,,0.00,Wunderground v.1.15,2013-09-14 20:50:00,
2013-09-14 16:55:00,69.9,56.3,30.00,North,32767,0.0,0.0,62,0.00,,,0.00,Wunderground v.1.15,2013-09-14 20:55:00,
2013-09-14 17:05:00,69.9,54.4,30.00,North,360,0.0,0.0,58,0.00,,,0.00,Wunderground v.1.15,2013-09-14 21:05:00,
2013-09-14 17:15:00,70.0,56.8,30.00,North,32767,0.0,0.0,63,0.00,,,0.00,Wunderground v.1.15,2013-09-14 21:15:00,
2013-09-14 17:25:00,70.1,56.9,30.01,North,32767,0.0,0.0,63,0.00,,,0.00,Wunderground v.1.15,2013-09-14 21:25:00,
2013-09-14 17:30:00,70.0,57.3,30.01,North,360,0.0,0.0,64,0.00,,,0.00,Wunderground v.1.15,2013-09-14 21:30:00,
2013-09-14 17:40:00,70.1,59.0,30.01,North,360,0.0,0.0,68,0.00,,,0.00,Wunderground v.1.15,2013-09-14 21:40:00,
2013-09-14 17:45:00,70.1,58.2,30.01,North,32767,0.0,0.0,66,0.00,,,0.00,Wunderground v.1.15,2013-09-14 21:45:00,
2013-09-14 17:50:00,70.1,57.8,30.01,North,360,0.0,0.0,65,0.00,,,0.00,Wunderground v.1.15,2013-09-14 21:50:00,
2013-09-14 17:55:00,70.1,55.1,30.01,North,360,0.0,0.0,59,0.00,,,0.00,Wunderground v.1.15,2013-09-14 21:55:00,
2013-09-14 18:05:00,70.1,57.8,30.02,North,32767,0.0,0.0,65,0.00,,,0.00,Wunderground v.1.15,2013-09-14 22:05:00,
2013-09-14 18:15:00,70.0,56.4,30.02,North,360,0.0,0.0,62,0.00,,,0.00,Wunderground v.1.15,2013-09-14 22:15:00,
2013-09-14 18:25:00,69.9,54.9,30.02,North,32767,0.0,0.0,59,0.00,,,0.00,Wunderground v.1.15,2013-09-14 22:25:00,
2013-09-14 18:35:00,69.4,56.7,30.02,North,32767,0.0,0.0,64,0.00,,,0.00,Wunderground v.1.15,2013-09-14 22:35:00,
2013-09-14 18:45:00,68.9,58.3,30.02,North,360,0.0,0.0,69,0.00,,,0.00,Wunderground v.1.15,2013-09-14 22:45:00,
2013-09-14 18:50:00,68.6,58.4,30.03,North,32767,0.0,0.0,70,0.00,,,0.00,Wunderground v.1.15,2013-09-14 22:50:00,
2013-09-14 18:55:00,68.4,57.8,30.03,North,32767,0.0,0.0,69,0.00,,,0.00,Wunderground v.1.15,2013-09-14 22:55:00,
2013-09-14 19:00:00,68.1,58.7,30.03,North,32767,0.0,0.0,72,0.00,,,0.00,Wunderground v.1.15,2013-09-14 23:00:00,
2013-09-14 19:06:00,67.7,59.1,30.03,North,360,0.0,0.0,74,0.00,,,0.00,Wunderground v.1.15,2013-09-14 23:06:00,
2013-09-14 19:15:00,67.1,58.9,30.03,North,32767,0.0,0.0,75,0.00,,,0.00,Wunderground v.1.15,2013-09-14 23:15:00,
2013-09-14 19:25:00,66.2,58.4,30.03,North,32767,0.0,0.0,76,0.00,,,0.00,Wunderground v.1.15,2013-09-14 23:25:00,
2013-09-14 19:30:00,65.8,57.7,30.03,North,32767,0.0,0.0,75,0.00,,,0.00,Wunderground v.1.15,2013-09-14 23:30:00,
2013-09-14 19:40:00,64.8,58.1,30.03,North,32767,0.0,0.0,79,0.00,,,0.00,Wunderground v.1.15,2013-09-14 23:40:00,
2013-09-14 19:50:00,63.8,57.2,30.03,North,32767,0.0,0.0,79,0.00,,,0.00,Wunderground v.1.15,2013-09-14 23:50:00,
2013-09-14 20:00:00,63.0,56.0,30.03,North,32767,0.0,0.0,78,0.00,,,0.00,Wunderground v.1.15,2013-09-15 00:00:00,
2013-09-14 20:05:00,62.7,56.1,30.04,North,32767,0.0,0.0,79,0.00,,,0.00,Wunderground v.1.15,2013-09-15 00:05:00,
2013-09-14 20:15:00,62.1,55.9,30.04,North,360,0.0,0.0,80,0.00,,,0.00,Wunderground v.1.15,2013-09-15 00:15:00,
2013-09-14 20:25:00,61.8,55.9,30.05,North,32767,0.0,0.0,81,0.00,,,0.00,Wunderground v.1.15,2013-09-15 00:25:00,
2013-09-14 20:35:00,61.6,55.7,30.05,North,32767,0.0,0.0,81,0.00,,,0.00,Wunderground v.1.15,2013-09-15 00:35:00,
2013-09-14 20:45:00,61.5,55.6,30.05,North,32767,0.0,0.0,81,0.00,,,0.00,Wunderground v.1.15,2013-09-15 00:45:00,
2013-09-14 20:55:00,61.5,55.6,30.06,North,32767,0.0,0.0,81,0.00,,,0.00,Wunderground v.1.15,2013-09-15 00:55:00,
2013-09-14 21:00:00,61.4,55.5,30.06,North,32767,0.0,0.0,81,0.00,,,0.00,Wunderground v.1.15,2013-09-15 01:00:00,
2013-09-14 21:05:00,61.4,55.5,30.06,North,360,0.0,0.0,81,0.00,,,0.00,Wunderground v.1.15,2013-09-15 01:05:00,
2013-09-14 21:15:00,61.4,55.5,30.06,North,32767,0.0,0.0,81,0.00,,,0.00,Wunderground v.1.15,2013-09-15 01:15:00,
2013-09-14 21:25:00,61.0,55.8,30.06,North,360,0.0,0.0,83,0.00,,,0.00,Wunderground v.1.15,2013-09-15 01:25:00,
2013-09-14 21:30:00,60.7,55.2,30.06,North,32767,0.0,0.0,82,0.00,,,0.00,Wunderground v.1.15,2013-09-15 01:30:00,
2013-09-14 21:35:00,60.4,55.2,30.07,North,360,0.0,0.0,83,0.00,,,0.00,Wunderground v.1.15,2013-09-15 01:35:00,
2013-09-14 21:40:00,60.1,54.9,30.07,North,32767,0.0,0.0,83,0.00,,,0.00,Wunderground v.1.15,2013-09-15 01:40:00,
2013-09-14 21:50:00,59.9,55.1,30.07,North,32767,0.0,0.0,84,0.00,,,0.00,Wunderground v.1.15,2013-09-15 01:50:00,
2013-09-14 21:55:00,59.8,55.0,30.07,North,32767,0.0,0.0,84,0.00,,,0.00,Wunderground v.1.15,2013-09-15 01:55:00,
2013-09-14 22:06:00,59.8,55.0,30.07,North,360,0.0,0.0,84,0.00,,,0.00,Wunderground v.1.15,2013-09-15 02:06:00,
2013-09-14 22:15:00,59.5,54.7,30.07,North,32767,0.0,0.0,84,0.00,,,0.00,Wunderground v.1.15,2013-09-15 02:15:00,
2013-09-14 22:20:00,59.3,54.8,30.07,North,32767,0.0,0.0,85,0.00,,,0.00,Wunderground v.1.15,2013-09-15 02:20:00,
2013-09-14 22:25:00,59.0,54.5,30.07,North,360,0.0,0.0,85,0.00,,,0.00,Wunderground v.1.15,2013-09-15 02:25:00,
2013-09-14 22:30:00,59.0,54.5,30.07,North,360,0.0,0.0,85,0.00,,,0.00,Wunderground v.1.15,2013-09-15 02:30:00,
2013-09-14 22:35:00,59.0,54.5,30.07,North,32767,0.0,0.0,85,0.00,,,0.00,Wunderground v.1.15,2013-09-15 02:35:00,
2013-09-14 22:45:00,58.8,54.6,30.07,North,32767,0.0,0.0,86,0.00,,,0.00,Wunderground v.1.15,2013-09-15 02:45:00,
2013-09-14 22:50:00,58.8,54.6,30.07,North,32767,0.0,0.0,86,0.00,,,0.00,Wunderground v.1.15,2013-09-15 02:50:00,
2013-09-14 23:00:00,58.7,54.8,30.07,North,32767,0.0,0.0,87,0.00,,,0.00,Wunderground v.1.15,2013-09-15 03:00:00,
2013-09-14 23:05:00,58.5,54.6,30.07,North,32767,0.0,0.0,87,0.00,,,0.00,Wunderground v.1.15,2013-09-15 03:05:00,
2013-09-14 23:15:00,58.3,54.1,30.08,North,32767,0.0,0.0,86,0.00,,,0.00,Wunderground v.1.15,2013-09-15 03:15:00,
2013-09-14 23:25:00,58.4,54.5,30.08,North,32767,0.0,0.0,87,0.00,,,0.00,Wunderground v.1.15,2013-09-15 03:25:00,
2013-09-14 23:35:00,58.2,54.3,30.08,North,32767,0.0,0.0,87,0.00,,,0.00,Wunderground v.1.15,2013-09-15 03:35:00,
2013-09-14 23:45:00,58.1,54.9,30.08,North,360,0.0,0.0,89,0.00,,,0.00,Wunderground v.1.15,2013-09-15 03:45:00,
2013-09-14 23:50:00,58.0,54.8,30.08,North,360,0.0,0.0,89,0.00,,,0.00,Wunderground v.1.15,2013-09-15 03:50:00,